Location: Montague
(41.3030°N, 74.7940°W)
Time: 03:22:28
(UTC-04:00)

Daily predictions for brighter satellites

Satellite Brightness Start Highest point End
(mag) Time Altitude Azimuth Time Altitude Azimuth Time Altitude Azimuth
Cosmos 2237 Rocket 3.6 00:12:25 34° NW 00:12:25 34° NW 00:16:47 10° N
COSMOS 2455 3.8 00:06:00 10° NNW 00:10:05 44° NNW 00:10:05 44° NNW
Cosmos 2369 Rocket 4.1 00:09:42 10° N 00:13:27 21° NE 00:13:27 21° NE
CENTAUR R/B 3.3 00:23:51 10° NW 00:30:30 62° WNW 00:30:30 62° WNW
ATLAS CENTAUR R/B 3.8 00:24:46 10° NW 00:33:12 46° N 00:33:12 46° N
USA 215 4.1 00:46:20 42° NE 00:47:06 44° NNE 00:53:13 10° NW
CZ-2C R/B 4.4 01:01:21 10° N 01:04:25 28° NNW 01:04:25 28° NNW
SL-16 R/B 4.0 01:21:36 24° NW 01:21:36 24° NW 01:25:21 10° N
Mayak 1.8 01:21:05 10° N 01:21:40 13° N 01:21:40 13° N
Cosmos 1943 Rocket 3.7 01:29:47 10° NNW 01:33:00 33° N 01:33:00 33° N
Cosmos 2369 Rocket 3.9 01:52:53 10° NNW 01:55:12 25° NW 01:55:12 25° NW
Cosmos 1943 4.4 02:12:12 38° NNW 02:12:12 38° NNW 02:15:58 10° NNE
BREEZE-M DEB (TANK) 3.9 02:11:46 62° NNE 02:11:46 62° NNE 02:23:44 10° ENE
SL-16 R/B 3.8 02:19:36 30° E 02:21:19 35° ENE 02:26:50 10° N
USA 229 DEB 4.3 02:16:22 10° NNW 02:23:23 55° NE 02:26:54 30° ESE
USA 229 4.4 02:16:29 10° NNW 02:23:30 54° NE 02:27:08 29° ESE
ADEOS Rocket 3.2 02:35:08 10° NNE 02:39:29 57° NNE 02:39:29 57° NNE
Cosmos 2221 4.4 02:43:51 28° NE 02:43:51 28° NE 02:46:10 10° NNE
NPP 4.1 02:45:51 10° NNE 02:50:12 59° NNE 02:50:12 59° NNE
Resurs 1-4 Rocket 2.5 02:59:42 10° NNE 03:04:34 55° E 03:04:34 55° E
ARIANE 5 R/B 3.2 03:01:35 10° NNE 03:06:36 48° E 03:06:36 48° E
COSMOS 2406 3.2 03:14:18 80° NNE 03:14:18 80° NNE 03:19:43 10° NNE
MOS 1 Rocket 3.9 03:13:57 10° NNE 03:17:37 50° ENE 03:17:37 50° ENE
Cosmos 292 Rocket 4.1 03:23:10 64° NE 03:23:10 64° NE 03:27:24 10° NNE
Sich 1 3.8 03:18:46 10° N 03:22:39 49° ENE 03:22:39 49° ENE
CZ-2D R/B 2.0 03:20:22 10° NNE 03:25:45 85° ESE 03:25:45 85° ESE
Cosmos 2285 Rocket 3.8 03:26:51 72° SSW 03:27:36 88° WNW 03:34:03 10° NNE
Cosmos 1300 4.1 03:28:52 37° ENE 03:28:52 37° ENE 03:31:47 10° NNE
Cosmos 540 Rocket 4.4 03:31:10 36° NW 03:31:10 36° NW 03:35:15 10° N
Tiangong 2 4.2 03:35:52 12° E 03:35:52 12° E 03:36:14 10° E
IRS-1D 3.4 03:31:54 10° N 03:37:06 78° WNW 03:37:11 78° W
BREEZE M DEB (TANK) 2.7 03:40:17 87° NNE 03:40:17 87° NNE 03:49:15 10° ESE
CZ-3A R/B 3.8 03:37:30 10° NW 03:50:25 - SSE 03:43:26 39° W
MOZ.5/SAFIR/RUBIN 5/SL-8 3.8 03:44:21 61° SE 03:45:04 76° ENE 03:49:46 10° N
Spot 4 Rocket 4.0 03:41:18 10° N 03:46:25 63° WNW 03:46:34 63° W
ADEOS II 3.9 03:45:33 10° NE 03:49:53 26° E 03:54:12 10° SSE
Cosmos 2123 Rocket 4.4 03:45:45 10° NNW 03:51:28 41° W 03:51:28 41° W
Lacrosse 5 2.8 03:49:55 10° NW 03:54:50 48° NE 03:59:44 10° ESE
Cosmos 1515 Rocket 4.5 03:53:34 33° SE 03:54:59 45° E 03:59:14 10° NNE
Cosmos 1459 Rocket 4.2 03:52:30 30° SSE 03:55:35 67° E 04:01:37 10° NNE
Cosmos 1633 Rocket 2.9 03:51:38 10° N 03:55:55 82° WNW 03:55:55 82° WNW
Cosmos 2082 Rocket 3.5 03:53:58 20° SSE 03:57:06 35° ESE 04:02:09 10° NE
ADEOS 3.5 03:53:25 10° N 03:58:36 67° WNW 03:59:25 58° WSW
Cosmos 1726 3.2 04:01:54 35° NNW 04:01:54 35° NNW 04:04:26 10° N
Cosmos 2228 Rocket 3.2 04:02:17 48° SSE 04:03:23 70° E 04:07:48 10° NNE
SL-16 R/B 3.0 04:04:43 39° W 04:04:49 39° W 04:10:35 10° NNW
USA 229 DEB 4.3 04:07:47 10° NW 04:14:06 34° WSW 04:14:06 34° WSW
USA 229 4.3 04:07:53 10° NW 04:14:12 34° WSW 04:14:20 34° WSW
Cosmos 1315 Rocket 4.0 04:11:20 10° NNW 04:13:44 28° NW 04:13:44 28° NW
BREEZE M DEB (TANK) 4.2 04:17:24 17° ESE 04:17:24 17° ESE 04:18:11 10° ESE
Cosmos 1328 Rocket 3.4 04:17:08 56° SW 04:17:52 69° W 04:22:13 10° N
NOSS 3-1 (A) 4.0 04:11:52 10° NW 04:19:35 82° WSW 04:28:03 10° SSE
Cosmos 1656 4.2 04:15:20 10° NNW 04:21:01 63° ENE 04:26:38 10° SE
Meteor 2-3 Rocket 4.1 04:16:11 10° N 04:21:49 64° ENE 04:27:28 10° SSE
Meteor 2-10 4.3 04:22:32 35° SW 04:24:50 62° WNW 04:30:25 10° N
Cosmos 1892 3.0 04:23:44 10° N 04:27:33 65° E 04:31:10 11° SSE
Cosmos 2369 3.6 04:22:23 10° NNW 04:28:04 89° WSW 04:33:43 10° SSE
Cosmos 1538 Rocket 4.4 04:26:52 35° WSW 04:28:34 47° WNW 04:33:45 10° N
In-Cosmos 22 Rocket 4.1 04:25:37 10° NNW 04:30:53 60° W 04:34:27 20° S
Cosmos 2061 Rocket 4.0 04:28:51 23° SSW 04:33:03 71° W 04:39:28 10° N
UNKNOWN OBJECT B 3.6 04:31:34 10° N 04:35:17 35° WNW 04:35:51 33° W
Cosmos 923 Rocket 3.9 04:34:15 26° SSW 04:37:15 86° WNW 04:42:32 10° NNE
Cosmos 2016 Rocket 3.9 04:34:36 17° SSW 04:39:22 79° W 04:45:29 10° N
Cosmos 1933 Rocket 3.6 04:36:07 10° NNW 04:40:32 61° W 04:43:42 18° S
BREEZE-M DEB (TANK) 3.4 04:38:34 15° WNW 04:41:32 71° NNE 04:51:21 10° ESE
Cosmos 1151 Rocket 3.0 04:41:22 29° SSW 04:43:25 63° W 04:47:40 10° N
Hubble Space Telescope 2.9 04:44:31 13° S 04:44:31 13° S 04:46:12 10° SSE
Resurs 1-4 Rocket 3.6 04:40:36 10° NNW 04:44:16 20° WNW 04:45:39 18° W
ARIANE 5 R/B 3.9 04:41:27 10° NNW 04:45:25 22° WNW 04:46:56 20° W
NOSS 3-1 (C) 4.3 04:40:08 10° NW 04:47:24 45° WSW 04:55:17 10° S
Meteor 1-27 4.2 04:44:07 17° SSW 04:48:37 74° W 04:54:13 10° N
Cosmos 1833 Rocket 2.7 04:45:25 19° SSW 04:49:33 88° WNW 04:55:14 10° NNE
CZ-2D R/B 4.5 04:47:46 10° NNW 04:51:07 26° WNW 04:52:00 24° W
Cosmos 1725 Rocket 3.9 04:48:05 10° S 04:54:15 85° W 05:00:28 10° N
Cosmos 1680 Rocket 3.5 04:51:05 18° SSW 04:55:06 78° WNW 05:00:28 10° NNE
Cosmos 1802 Rocket 4.4 04:57:19 18° SW 05:01:43 44° WNW 05:07:43 10° N
Cosmos 2112 Rocket 4.0 04:58:06 14° SSW 05:02:41 79° WNW 05:08:03 10° NNE
PSLV R/B 4.0 05:02:49 27° SW 05:03:37 31° SSW 05:06:32 10° SE
CZ-4B R/B 3.1 04:59:19 10° N 05:03:49 84° WNW 05:08:21 10° SSW
Okean O Rocket 1.7 04:59:32 10° NNE 05:03:58 80° ESE 05:08:21 10° S
CZ-2D R/B 4.0 05:02:32 10° NNW 05:05:02 13° WNW 05:07:05 11° W
Cosmos 1980 Rocket 2.8 05:01:19 10° NNW 05:06:52 60° ENE 05:12:25 10° SE
Tiangong 2 1.1 05:08:15 22° WSW 05:10:10 87° N 05:13:25 10° ENE
Shenzhou-11 Module 2.2 05:14:00 18° W 05:16:12 70° N 05:19:16 10° ENE
Cosmos 2278 4.2 05:11:23 10° NW 05:16:30 36° WSW 05:21:35 10° S
Cosmos 1455 2.8 05:16:37 14° SW 05:19:26 36° WNW 05:22:56 10° N
Cosmos 2056 Rocket 4.0 05:15:33 10° NNW 05:20:56 67° ENE 05:26:19 10° SSE
Cosmos 1697 Rocket 2.7 05:15:43 10° NNW 05:21:18 62° WSW 05:26:52 10° S
Tsikada Rocket 4.1 05:15:45 10° NNW 05:21:57 58° W 05:28:10 10° S
ADEOS II 2.7 05:24:50 10° N 05:29:42 40° WNW 05:34:33 10° SW
COSMOS 2487 4.0 05:28:16 13° WSW 05:30:28 21° WNW 05:33:15 10° NNW
EO 1 Del DPAF 4.1 05:26:57 10° SSE 05:30:42 55° ENE 05:34:27 10° N
CZ-4B DEB 4.3 05:29:41 10° N 05:35:09 64° WNW 05:40:34 10° SSW
Lacrosse 5 2.6 05:33:13 10° WNW 05:37:37 30° SW 05:42:00 10° S
CRYOSAT 2 4.3 05:35:03 10° N 05:39:54 82° W 05:44:45 10° S
Cosmos 2082 Rocket 3.0 05:36:05 10° WSW 05:41:08 34° WNW 05:46:16 10° N
Meteor PRIRODA 3.6 05:38:14 10° N 05:41:53 68° WNW 05:45:30 10° SSW
Cosmos 2084 3.9 05:40:27 10° WSW 05:44:17 41° NW 05:47:58 10° NNE
Cosmos 1862 3.6 05:40:36 10° N 05:44:40 76° E 05:48:44 10° SSE
Cosmos 1869 Rocket 4.0 05:42:17 10° NNW 05:46:28 40° W 05:50:36 10° SSW
COSMO-SKYMED 1 4.0 05:45:22 10° SE 05:49:29 45° ENE 05:53:38 10° N
OAO 2 Rocket 4.1 05:46:52 10° WSW 05:51:27 39° S 05:56:04 10° ESE
